Regional Weather Roundup
Issued by NWS Binghamton, NY

Current Version | Previous Version | Text Only | Print | Product List | Glossary On
Versions: 1 2 3 4 5 6 7 8 9 10 11 12 13 14 15 16 17 18 19 20 21 22 23 24 25 26 27
000
ASUS41 KBGM 301110
RWRBGM

REGIONAL WEATHER ROUNDUP
NATIONAL WEATHER SERVICE BINGHAMTON NY
700 AM EDT FRI SEP 30 2022

Note: "fair" indicates few or no clouds below 12,000 feet with no
significant weather and/or obstructions to visibility.

* = Station(s) that does not report precipitation, such as rain,
snow, etc, also no thunder or fog.

NYZ009-015>018-022>025-036-037-044>046-055>057-062-301200
...Central New York...

CITY           SKY/WX    TMP DP  RH WIND       PRES   REMARKS
Binghamton     PTCLDY    37  36  96 NE6       30.36R WCI  32
Cortland       FOG       34  34 100 CALM      30.39R VSB 1/4
Dansville      PTCLDY    37  35  92 SE8       30.41S WCI  31
Elmira         FOG       38  38 100 NW5       30.39S VSB 1/4 WCI  34
Endicott       FOG       37  37 100 CALM      30.39  VSB 1/2
Ithaca         CLEAR     34  33  96 E3        30.40R
Hamilton       CLOUDY    34 N/A N/A SE3       30.40R VSB 1/4
Monticello     MOCLDY    37  37 100 N3        30.36S
Norwich        FOG       36  36 100 CALM      30.42S VSB 1/4
Oneonta          N/A     36  36 100 CALM      30.37S
Penn Yan       FOG       43  43 100 SW3       30.40R VSB 1/4
Rome           CLEAR     36  35  96 CALM      30.41S
Seneca Falls   PTSUNNY   37  37 100 CALM      30.41S
Sidney         FOG       37  37 100 CALM      30.40R VSB 3/4
Skaneateles    FOG       37  37 100 CALM      30.38S VSB<1/4
Syracuse       PTCLDY    40  37  89 CALM      30.40S
$$

PAZ038>040-043-044-047-048-072-301200
...Northeast Pennsylvania...

CITY           SKY/WX    TMP DP  RH WIND       PRES   REMARKS
Hazleton       MOCLDY    37  36  93 CALM      30.36F
Scranton       CLOUDY    42  39  89 E5        30.36S
$$
&&
KEY
WCI = Wind Chill Index
VSB = Visibility
HX  = Heat Index
$$



USA.gov is the U.S. government's official web portal to all federal, state and local government web resources and services.